Regional Weather Roundup
Issued by NWS Grand Forks, ND

Home | Current Version | Previous Version | Graphics & Text | Print | Product List | Glossary On
Versions: 1 2 3 4 5 6 7 8 9 10 11 12 13 14 15 16 17 18 19 20 21 22 23 24 25 26 27 28 29 30 31 32 33 34 35 36 37 38 39 40 41 42 43 44 45 46 47 48 49 50
000
ASUS43 KFGF 070231
RWRFGF
PRAIRIE TO PINES  WEATHER ROUNDUP
NATIONAL WEATHER SERVICE EASTERN NORTH DAKOTA/GRAND FORKS ND
800 PM CST TUE DEC 06 2016

 **SATELLITE DATA USED TO AUGMENT SKY COVER AT AUTOMATED STATIONS**
 *****  WEATHER ACROSS EASTERN NORTH DAKOTA  *****

CITY           SKY/WX    TMP DP  RH WIND       PRES   REMARKS
GRAND FORKS    LGT SNOW  19  14  81 NW26G43   29.65R BLWGSNOWWCI   1
GRAND FRKS AFB LGT SNOW  18  12  79 NW25G40   29.65R WCI  -1
GRAND FRKS NWS   N/A     18 N/A N/A NW9         N/A  WCI   6
DEVILS LAKE    SNOW      10   7  85 W32G45    29.74R VSB 1/2 WCI -12
FARGO          CLOUDY    15   9  76 W31G44    29.72R WCI  -6
WAHPETON ARPT  CLOUDY    18  10  73 W30G38    29.77R WCI  -2
$$

 ***** WEATHER ACROSS CENTRAL AND WESTERN NORTH DAKOTA  *****

CITY           SKY/WX    TMP DP  RH WIND       PRES   REMARKS
BISMARCK       CLOUDY     6   2  83 W23G31    30.02R WCI -15
MINOT          LGT SNOW   5   0  79 W33G41    29.95R WCI -20
JAMESTOWN      SNOW      10   7  87 NW26G47   29.83R VSB 1/2 WCI -11
MINOT AFB      LGT SNOW   3   0  85 NW35G41   29.94R VSB 3/4 WCI -23
GARRISON         N/A      4  -1  80 NW29G38   29.97R WCI -20
WILLISTON      CLOUDY     4  -4  69 NW23G29   30.13R WCI -18
DICKINSON      CLOUDY     1  -5  75 NW25G33   30.03R HAZE    WCI -23
HETTINGER      PTCLDY     1  -4  79 W21       30.05R WCI -21
$$

 *****  OTHER AIRPORT OBSERVATIONS IN OUR AREA  *****

CITY           SKY/WX    TMP DP  RH WIND       PRES   REMARKS
WALHALLA       LGT SNOW  18  18 100 NW22G31   29.65R VSB 1   WCI   0
GRAFTON AIRPOR CLOUDY    19  18  93 NW31G40   29.64R FOG     WCI   0
VALLEY CITY AR LGT SNOW  10  10 100 NW33G52   29.80R VSB 3/4 WCI -13
CANDO          LGT SNOW  10   9  92 NW28G35   29.79R WCI -11
CAVALIER APRT  FOG       19  18  93 NW30G41   29.62R VSB 1/2 WCI   0
GWINNER        CLOUDY    14  10  85 W31G37    29.83R WCI  -7
ROLLA          HVY SNOW  10  10 100 NW38G51   29.75R VSB 1/4 WCI -14
 ***** THE ABOVE OBSERVATIONS ARE NON NWS ARE NOT QUALITY
       CONTROLLED AND MAY MIS-REPORT RAIN FOR SNOW...
$$

  *****  WEATHER ACROSS NORTHERN MINNESOTA  *****

CITY           SKY/WX    TMP DP  RH WIND       PRES   REMARKS
FLAG ISLAND    CLOUDY    23  19  86 W7        29.42S WCI  15
WARROAD        PTCLDY    21  18  86 SW3       29.44S
ROSEAU         LGT SNOW  21  18  86 CALM      29.45R
HALLOCK        SNOW      23  21  93 NW37G44   29.54R VSB 1/2 WCI   4
THF RVR FALLS  LGT SNOW  21  19  92 NW24G37   29.52  VSB 1   WCI   4
BAUDETTE       CLOUDY    21  18  88 CALM      29.43R
WASKISH        FLURRIES  21  19  93 W12       29.45R WCI   9
CROOKSTON      SNOW      19  18  93 NW38      29.60R VSB 1/2 WCI  -1
STEPHEN NDAWN    N/A     21  21 100 NW26        N/A  WCI   4
GREENBUSH NDAW   N/A     25  23  93 W23         N/A  WCI  10
$$
  *****  WEATHER ACROSS CENTRAL AND WEST MINNESOTA  *****

CITY           SKY/WX    TMP DP  RH WIND       PRES   REMARKS
FOSSTON        LGT SNOW  18  16  93 W24G33    29.55R WCI   0
BEMIDJI        LGT SNOW  22  19  89 W15G22    29.47S WCI   8
PARK RAPIDS    LGT SNOW  20  13  74 W26G32    29.54R WCI   2
ELBOW LAKE     LGT SNOW  15  13  92 NW24G33   29.77R VSB 1   WCI  -4
WADENA         LGT SNOW  16  12  86 W20G28    29.62R WCI  -1
DETROIT LAKES  LGT SNOW  18  14  86 W25G35    29.63R WCI  -1
MOORHEAD       CLOUDY    16   9  73 W28G37    29.72R WCI  -4
FERGUS FALLS   LGT SNOW  14  12  92 W31G40    29.78R VSB 3/4 WCI  -7
MORRIS MN      CLOUDY    16   9  73 W29G38    29.79R WCI  -4
STAPLES        LGT SNOW  16  12  86 W17G30    29.62R WCI   0
$$
  *****  WEATHER ELSEWHERE ACROSS MINNESOTA  *****

CITY           SKY/WX    TMP DP  RH WIND       PRES   REMARKS
DULUTH         LGT SNOW  20  16  84 SW17G26   29.48R FOG     WCI   5
INTRNTL FALLS  LGT SNOW  20  17  88 NW3       29.41R FOG
ELY            LGT SNOW  19  18  93 S5        29.41F WCI  13
CLOQUET        LGT SNOW  19  16  86 SW10G17   29.51R WCI   8
WHEATON        LGT SNOW  16  12  86 W23G36    29.83R WCI  -2
BRAINERD       LGT SNOW  18  13  80 W22G32    29.58R WCI   1
HIBBING        LGT SNOW  20  18  92 SW7       29.41R FOG     WCI  11
ALEXANDRIA     LGT SNOW  15  12  88 W29G38    29.71R VSB 1   WCI  -5
SAINT CLOUD    LGT SNOW  18  12  77 W23G31    29.72R WCI   0
MINNEAPOLIS    FLURRIES  20  10  65 W21G33    29.78R WCI   4
$$

  *****  WEATHER ACROSS SOUTH DAKOTA  *****

CITY           SKY/WX    TMP DP  RH WIND       PRES   REMARKS
SIOUX FALLS    FLURRIES  14   7  73 W22G32    29.99R WCI  -4
BROOKINGS      CLEAR     10   4  76 W26G36    29.90S WCI -11
WATERTOWN      LGT SNOW  10   6  84 W20G36    29.88R FOG     WCI  -9
HURON          CLEAR     10   3  73 W23G30    30.03R WCI -10
SISSETON         N/A     15   7  70 NW30G44   29.81R WCI  -5
ABERDEEN       CLOUDY    11   2  67 NW30G39   29.94R WCI -11
MITCHELL       CLEAR     14   5  67 NW21G30   30.07R WCI  -4
PIERRE         CLEAR     11   3  70 NW28G45   30.05S HAZE    WCI -10
MOBRIDGE       CLOUDY     9  -2  61 NW32G45   30.00R WCI -14
RAPID CITY     CLEAR      6  -1  73 N13       30.05R WCI -10
$$

  *****  SOME WEATHER IN NEARBY STATES *****

CITY           SKY/WX    TMP DP  RH WIND       PRES   REMARKS
GLASGOW MT     MOCLDY     1  -8  66 W23G33    30.22R WCI -22
GREAT FALLS MT CLOUDY     0  -7  72 NW6       30.24R WCI -12
CHEYENNE WY    LGT SNOW  15   9  76 E13       29.84R WCI   1
SCOTTSBLUFF NE CLOUDY    17   3  54 N12       29.98S WCI   4
OMAHA NE       CLEAR     25  10  53 NW10      30.08R WCI  15
DES MOINES IA  CLEAR     27  15  61 W13       30.02R WCI  16
DAVENPORT IA   CLEAR     28  21  75 W12       29.99R WCI  18
CHICAGO IL     PTCLDY    29  22  75 W18G24    29.92R WCI  16
EAU CLAIRE WI  CLOUDY    22  14  71 W20G35    29.74R WCI   7
LA CROSSE WI   CLOUDY    27  16  63 W9        29.85R WCI  18
$$

  *****  SOME NATIONAL WEATHER *****

CITY           SKY/WX    TMP DP  RH WIND       PRES   REMARKS
LA GUARDIA NY  LGT RAIN  43  37  79 NE16      29.93F
RALEIGH NC     CLOUDY    43  40  89 W6        29.84R
ATLANTA GA     CLOUDY    55  52  89 W8        29.91R
NEW ORLEANS LA CLOUDY    57  54  89 N7        30.03R
OKLAHOMA CITY  CLOUDY    40  20  44 N10       30.09R
ALBUQUERQUE NM MOCLDY    39  14  36 S5        29.84
SALT LAKE CITY PTCLDY    26  20  77 N6        29.87R WCI  19
LOS ANGELES CA CLOUDY    58  53  84 W9        29.98R
BOISE ID       MOCLDY    22  18  85 NW8       30.05R WCI  12
SEATTLE WA     PTCLDY    34  23  64 N5        30.27R
$$

*** WEATHER ACROSS MANITOBA...SASKATCHEWAN AND ONTARIO ***
                ***ONTARIO***

CITY           SKY/WX    TMP DP  RH WIND       PRES   REMARKS
GERALDTON      FLURRIES  34  32  93 E13       29.49F WCI  25
THUNDER BAY    FLURRIES  27  21  80 SW9G18    29.51S WCI  17
SIOUX LOOKOUT  FLURRIES  23  19  86 SW6       29.41  WCI  16
TORONTO        DRIZZLE   36  36 100 SE13G23   29.74F
BIG TROUT LK   LGT SNOW  16  14  93 E10G21    29.76S WCI   3
PICKLE LAKE    LGT SNOW  30  28  93 E15G21    29.42S DRFTSNOWWCI  19
DRYDEN         FLURRIES  23  19  86 S3        29.40S
KENORA         MOCLDY    21  19  93 W5        29.40  WCI  15
$$
                *** MANITOBA***

CITY           SKY/WX    TMP DP  RH WIND       PRES   REMARKS
BRANDON        FLURRIES  12   7  79 NW30G41   29.80R WCI  -9
DAUPHIN        LGT SNOW  18  14  86 NW16G23   29.85R WCI   3
ISLAND LAKE    NOT AVBL
PILOT MOUND      N/A     12  10  92 NW32G40     N/A  WCI -10
THE PAS        FLURRIES  16  10  79 NW21      30.01S WCI  -2
THOMPSON       LGT SNOW  18  16  93 N12       30.00R WCI   5
WINNIPEG       LGT SNOW  25  23  93 NW25      29.54R VSB 1   WCI   9
LYNN LAKE      LGT SNOW  10   7  85 N8        30.10R WCI  -1
CHURCHILL      FRZ DRZL  27  25  93 NE21G33   30.03R DRFTSNOWWCI  13
GILLAM         PTCLDY    16  14  93 N13       29.98R WCI   2
$$
                ***SASKATCHEWAN***

CITY           SKY/WX    TMP DP  RH WIND       PRES   REMARKS
ESTEVAN        LGT SNOW   3   0  85 NW28G39   30.04R VSB 1   WCI -21
KINDERSLEY     PTCLDY    -4  -9  77 NW14      30.25R WCI -24
LLOYDMINSTER   CLEAR     -4  -9  77 NW16G23   30.29  WCI -25
PRINCE ALBERT  FLURRIES   3  -4  72 NW10      30.18R WCI -12
REGINA         CLOUDY     3  -2  78 NW24G33   30.12  BLWGSNOWWCI -20
YORKTON        LGT SNOW   9   3  78 NW23G31   29.99R WCI -12
N. BATTLEFORD  MOCLDY     0  -8  71 NW14      30.28R WCI -19
LA RONGE       FLURRIES   9   3  78 W9        30.16  WCI  -5
SASKATOON      MOCLDY     3  -4  72 NW21      30.22R WCI -18
SWIFT CURRENT  CLOUDY    -2  -6  84 NW24G30   30.17R WCI -27
$$
NOTE: THESE ARE AUTOMATED STATIONS WITH LIMITED QUALITY CONTROL
      "FAIR" INDICATES FEW OR NO CLOUDS BELOW 12,000 FEET WITH NO
      SIGNIFICANT WEATHER AND/OR OBSTRUCTIONS TO VISIBILITY.
      SKY/WX - SKY CONDITION AND SIGNIFICANT WEATHER.
      TMP - AIR TEMPERATURE.    DP   - DEWPOINT TEMPERATURE.
      RH  - RELATIVE HUMIDITY.  PRES - PRESSURE.
      HX  - HEAT INDEX.         WCI  - WIND CHILL INDEX.
$




USA.gov is the U.S. government's official web portal to all federal, state and local government web resources and services.